Temp
10 10 10 10 11 11 11 12 12 12 12 12 13 12 12 12 12 12 12 12 12 12 12 12 12 12 12 12 12 12 12 12 12 12 12 12 12 12 12 12 12 12 12 12 12 12 12 12 12 12 12 12 12 12 12 12 12 12 11 11 11 11 11 11 11 11 11 11 10
10 10 10 11 11 11 11 12 12 12 12 13 13 13 12 12 12 12 12 12 12 12 12 12 12 12 12 12 12 12 12 12 12 12 12 12 12 12 12 12 12 12 12 12 12 12 12 12 12 12 12 12 12 11 11 11 11 11 11 11 11 11 11 11 11 11 11 10 10
10 11 11 11 11 11 11 12 12 12 12 13 13 13 12 12 12 12 12 12 12 12 12 13 13 13 13 13 13 12 12 12 12 12 12 12 12 12 12 12 12 12 12 12 12 12 12 12 12 12 12 12 12 11 11 11 11 11 11 11 11 11 11 11 11 11 11 10 10
11 11 11 11 12 12 12 12 12 12 12 13 13 13 13 12 12 12 12 12 13 13 13 13 13 13 13 13 13 12 12 12 12 12 12 12 12 12 12 12 12 12 12 12 12 12 12 12 12 12 12 12 11 11 11 11 11 11 11 11 11 11 11 11 11 11 11 10 10
11 11 12 12 12 12 12 12 12 13 13 13 13 13 13 12 12 12 12 13 13 13 13 13 13 13 13 13 13 12 12 12 12 12 12 12 12 12 12 12 12 12 12 12 12 12 12 12 12 12 12 12 11 11 11 11 11 11 11 11 11 11 11 11 11 11 10 10 10
12 12 12 12 12 12 12 12 13 13 13 13 13 13 13 13 13 13 13 13 13 13 13 13 13 13 13 13 13 12 12 12 12 12 12 12 12 12 12 12 12 12 12 12 12 12 12 12 12 12 12 11 11 11 11 11 11 11 11 11 11 11 11 11 11 10 10 10 10
12 12 12 12 12 13 13 13 13 13 13 13 13 13 13 13 13 13 13 13 13 13 13 13 13 13 13 13 13 12 12 12 12 12 12 12 12 12 12 12 12 12 12 12 12 12 12 12 12 12 12 11 11 11 11 11 11 11 11 11 11 11 11 11 10 10 10 10 10
12 12 12 12 13 13 13 13 13 13 13 13 13 13 13 13 13 13 13 13 13 13 13 13 13 13 13 13 13 12 12 12 12 12 12 12 12 12 12 12 12 12 12 12 12 12 12 12 12 12 12 11 11 11 11 11 11 11 11 11 11 11 11 10 10 10 10 10 10
12 12 12 12 12 13 13 13 13 13 13 13 13 13 13 13 13 13 13 13 13 13 13 13 13 13 13 13 13 12 12 12 12 12 12 12 12 12 12 12 12 12 12 12 12 12 12 12 12 12 12 11 11 11 11 11 11 11 11 11 11 11 10 10 10 10 10 10 10
12 12 12 12 12 12 12 13 13 13 13 13 14 13 13 13 13 13 13 13 13 13 13 13 13 13 13 13 13 12 12 12 12 12 12 12 12 12 12 12 12 12 12 12 12 12 12 12 12 12 12 12 11 11 11 11 11 11 11 11 11 10 10 10 10 10 10 10 9
12 12 12 12 12 12 12 12 12 13 13 13 13 13 13 13 13 13 13 13 13 13 13 13 13 13 13 13 12 12 12 12 12 12 12 12 12 12 12 12 12 12 12 12 12 12 12 12 12 12 12 12 12 11 11 11 11 11 11 11 10 10 10 10 10 10 9 9 9
12 12 12 12 12 12 12 12 12 12 12 13 13 13 13 13 13 13 13 13 13 13 13 13 13 13 13 12 12 12 12 12 12 12 12 12 12 13 13 12 12 12 12 12 12 12 12 12 12 12 12 12 12 12 11 11 11 11 11 10 10 10 10 10 10 9 9 9 9
11 12 12 11 11 11 11 12 12 12 12 12 12 13 13 13 13 13 13 13 13 13 13 13 13 13 12 12 12 12 12 12 12 12 12 12 12 12 12 12 12 12 12 12 12 12 12 12 12 12 12 12 12 12 11 11 11 11 10 10 10 10 10 9 9 9 9 8 8
11 11 11 11 11 11 11 11 11 11 12 12 12 12 12 12 12 12 12 12 12 12 12 12 12 12 12 12 12 12 12 12 12 12 12 12 12 12 12 12 12 12 12 12 12 12 12 12 12 12 12 12 12 12 11 11 11 11 10 10 9 9 9 9 9 8 8 8 7
11 11 11 11 11 11 11 11 11 11 12 12 12 12 12 12 12 12 12 12 12 12 12 12 12 12 12 12 12 12 12 12 12 12 12 12 12 12 12 12 12 12 12 11 11 11 11 11 11 11 11 11 11 11 11 11 11 10 10 9 9 9 9 9 8 8 8 7 7
11 11 11 11 11 11 11 11 12 12 12 12 12 12 12 12 12 12 12 13 13 12 12 12 12 12 12 13 13 12 12 12 12 12 12 12 12 12 12 11 11 11 11 11 11 11 11 11 11 11 11 11 11 11 10 10 10 9 9 9 8 8 8 8 7 7 7 7 7
12 11 11 11 11 11 12 12 12 12 12 12 12 12 12 12 12 12 13 13 13 12 12 12 12 12 12 13 13 13 12 12 12 12 12 12 12 11 11 11 11 11 11 11 11 11 11 11 11 10 10 10 10 10 10 9 9 9 8 8 8 7 7 6 6 6 7 7 7
12 12 12 12 12 12 12 12 13 13 13 12 12 12 12 12 12 13 13 13 13 13 13 13 13 13 13 13 13 13 12 12 12 12 12 11 11 11 11 11 11 11 11 11 11 11 10 10 10 10 10 9 9 9 9 8 8 8 8 7 7 7 6 6 6 6 6 6 6
12 12 12 12 12 13 13 13 13 13 13 13 12 12 12 12 13 13 13 13 13 13 13 13 13 13 13 13 13 13 12 12 12 12 11 11 11 11 11 11 11 11 11 11 11 11 10 10 10 10 9 9 9 9 8 8 8 7 7 7 7 6 6 6 6 6 6 6 6
13 13 13 13 13 14 14 14 14 14 13 13 13 12 12 13 13 13 13 13 14 14 13 13 13 13 13 13 13 12 12 12 12 12 11 11 11 11 11 11 11 11 11 11 11 11 10 10 10 9 9 9 8 8 8 8 8 7 7 7 7 7 7 6 6 6 6 6 6
13 13 14 14 14 14 14 14 14 14 14 13 13 13 13 13 13 13 13 14 13 13 13 13 13 13 13 12 12 12 12 12 12 12 11 11 11 11 11 11 11 11 11 11 11 11 10 10 9 9 9 9 8 8 8 8 7 7 7 7 7 7 7 7 7 6 6 6 6
14 14 14 15 14 15 15 14 14 14 14 13 13 13 13 13 13 13 13 13 13 13 13 13 13 12 12 12 12 12 11 12 12 12 11 11 11 11 11 11 11 11 11 11 11 10 10 9 9 9 9 8 8 8 8 7 7 7 7 7 7 7 7 7 7 7 6 6 6
14 15 15 15 15 15 14 14 14 14 14 14 14 13 13 13 13 13 13 13 12 12 13 13 13 12 12 12 11 11 11 11 12 12 12 11 11 11 11 11 11 11 11 10 10 10 9 9 9 9 8 8 8 8 7 7 7 7 7 7 8 8 7 7 7 7 7 7 6
14 14 14 14 14 14 14 14 14 14 14 14 14 14 13 13 13 12 12 12 12 12 12 13 12 12 12 12 11 11 11 11 12 12 12 12 11 11 11 11 11 11 10 10 9 9 9 9 8 8 8 8 8 7 7 7 7 7 8 8 7 7 7 7 7 7 7 7 6
14 14 14 14 14 14 14 14 14 14 14 14 14 14 13 13 12 12 12 12 12 12 12 12 12 12 12 12 12 12 12 12 12 12 12 12 11 11 11 11 11 11 10 10 9 9 9 8 8 8 7 7 7 7 7 8 8 8 8 7 7 7 7 7 7 7 7 7 6
14 14 14 14 14 14 14 14 14 14 14 14 14 13 13 13 13 12 12 12 12 12 12 12 12 12 12 12 12 12 12 12 12 12 11 11 11 11 11 11 11 10 10 9 9 8 8 8 8 7 7 7 7 8 8 8 8 8 7 7 7 7 7 7 7 7 7 6 6
14 14 14 14 14 14 14 14 14 14 14 14 14 14 13 13 13 13 12 12 13 13 12 12 12 12 12 12 12 12 12 12 11 11 11 11 11 10 10 10 10 9 9 9 8 8 8 8 7 7 7 7 8 8 8 8 7 7 7 7 7 7 7 7 7 7 7 6 6
14 14 14 14 14 14 14 14 14 14 14 14 14 14 14 13 13 13 13 13 13 13 12 12 12 12 12 12 11 11 11 11 11 11 10 10 10 10 9 9 9 9 8 8 8 7 7 7 7 7 7 7 7 7 7 7 7 7 6 6 7 7 7 7 7 7 7 7 6
14 14 14 14 14 14 14 14 14 14 14 14 14 14 13 13 13 13 13 13 13 13 12 12 12 12 12 11 11 11 11 10 10 10 10 9 9 9 9 8 8 8 8 8 7 7 7 7 7 8 8 7 7 7 6 6 6 6 6 6 7 7 7 7 7 7 7 6 6
15 15 14 14 14 14 14 14 14 14 14 14 14 13 13 13 13 13 13 13 13 12 12 12 12 11 11 11 10 10 10 9 9 9 9 9 8 8 8 8 8 8 7 7 7 7 8 8 8 8 8 7 7 6 6 6 6 6 6 6 7 7 7 7 7 7 6 6 6
15 15 14 14 14 14 14 14 14 14 13 13 13 13 13 13 13 14 13 13 12 12 11 11 11 10 10 10 10 10 9 9 9 9 8 8 8 8 7 7 7 7 7 7 8 8 8 8 8 8 8 7 6 6 6 6 6 6 6 7 7 7 7 7 7 6 6 6 5
15 15 14 14 14 14 14 13 13 13 13 13 13 13 13 13 13 13 13 12 12 11 11 10 10 10 10 10 9 9 9 9 9 8 8 7 7 7 7 7 7 7 7 8 8 8 8 8 8 8 8 7 6 6 5 6 6 6 6 6 7 7 6 6 6 6 6 5 5
14 14 14 14 14 14 13 13 13 13 13 13 13 13 13 13 12 12 12 11 11 11 10 10 10 10 10 9 9 9 9 8 8 8 7 7 7 7 7 8 8 8 8 8 8 8 8 8 8 8 7 7 6 5 5 5 6 6 6 6 6 6 6 6 6 6 5 5 4
14 13 13 13 13 14 14 13 13 13 13 13 13 13 12 12 11 11 11 11 11 11 10 10 10 10 10 9 9 8 8 8 8 8 8 8 8 8 8 8 8 8 8 8 8 8 8 8 8 7 7 6 5 5 5 5 5 6 6 6 6 6 6 6 5 5 5 4 4
13 13 14 14 14 14 14 14 13 13 12 12 12 13 13 12 11 10 10 10 11 10 10 10 10 9 9 9 8 8 8 8 8 8 8 8 8 8 8 8 8 8 8 8 8 8 8 8 8 7 6 6 5 5 5 5 5 5 6 6 5 5 5 5 5 5 4 4 4
14 14 14 14 14 14 14 14 13 13 13 13 12 12 13 12 11 10 10 10 10 10 10 10 9 9 9 8 8 8 8 8 8 8 8 8 8 8 8 8 8 7 7 7 7 8 8 7 7 7 6 5 5 5 5 5 5 5 5 5 5 5 5 5 5 4 4 3 3
14 14 14 14 14 14 14 13 13 14 14 13 12 12 12 12 11 10 10 10 10 10 9 9 9 8 8 8 8 8 8 8 8 8 8 8 8 8 8 8 8 7 7 7 7 7 8 7 7 6 6 5 5 5 5 5 5 5 5 5 5 5 5 5 4 4 3 3 3
13 13 14 14 14 14 14 14 13 14 14 13 12 11 11 11 11 10 10 9 9 9 9 9 8 8 8 8 8 8 8 8 8 8 8 8 8 8 8 8 8 7 7 7 7 7 7 7 7 6 6 5 5 5 5 5 5 5 5 5 5 5 4 4 4 3 3 3 3
14 14 14 14 14 14 14 14 14 14 13 12 11 11 11 11 11 10 10 9 9 9 9 8 8 8 8 8 8 8 8 8 8 8 8 8 8 8 8 8 8 8 7 7 7 7 7 7 6 6 6 5 5 5 5 5 5 5 5 5 4 4 4 4 3 3 3 3 2
14 14 14 13 13 14 14 15 15 14 13 11 11 11 11 11 10 10 9 9 9 9 9 8 8 8 8 8 8 8 8 8 8 8 8 8 8 8 8 8 8 8 7 7 7 7 7 7 6 6 6 5 5 5 5 5 5 5 4 4 4 4 4 3 3 3 2 2 2
14 14 14 14 13 13 14 14 14 13 12 11 11 11 11 11 10 9 9 9 9 9 8 8 8 8 8 8 8 8 8 8 8 8 8 8 8 8 8 8 8 7 7 7 7 7 7 6 6 6 6 5 5 5 5 5 5 4 4 4 4 3 3 3 2 2 2 2 2
Height
1483 1484 1486 1487 1489 1490 1492 1493 1495 1496 1497 1499 1500 1502 1503 1505 1506 1508 1510 1511 1512 1513 1515 1516 1517 1518 1520 1521 1521 1523 1524 1525 1526 1527 1528 1529 1530 1530 1531 1532 1533 1534 1535 1535 1536 1537 1538 1539 1540 1541 1541 1542 1542 1543 1544 1544 1545 1546 1546 1546 1547 1547 1547 1547 1548 1548 1548 1549 1549
1483 1485 1486 1488 1489 1491 1492 1493 1495 1496 1497 1499 1500 1502 1503 1505 1506 1508 1509 1511 1512 1513 1514 1516 1516 1518 1519 1520 1521 1522 1523 1524 1525 1526 1527 1528 1528 1529 1530 1531 1532 1533 1533 1534 1535 1536 1537 1538 1538 1539 1540 1540 1541 1541 1542 1542 1543 1544 1544 1545 1545 1546 1546 1546 1546 1547 1547 1547 1548
1484 1486 1487 1488 1490 1491 1492 1493 1494 1496 1497 1499 1500 1502 1504 1505 1506 1507 1509 1510 1511 1513 1514 1515 1516 1517 1518 1519 1520 1521 1522 1523 1524 1525 1526 1526 1527 1528 1529 1530 1531 1531 1532 1533 1533 1534 1535 1536 1537 1538 1538 1539 1540 1540 1541 1541 1542 1542 1543 1543 1544 1544 1544 1544 1545 1545 1546 1546 1546
1484 1486 1487 1488 1489 1490 1491 1492 1494 1496 1497 1498 1500 1502 1503 1505 1506 1507 1508 1510 1511 1512 1513 1514 1515 1516 1516 1518 1519 1520 1521 1522 1523 1524 1525 1526 1526 1527 1528 1529 1530 1530 1531 1531 1532 1533 1534 1535 1536 1536 1537 1537 1538 1539 1539 1540 1540 1541 1541 1541 1542 1542 1542 1543 1543 1543 1544 1544 1544
1484 1485 1486 1487 1488 1490 1491 1492 1494 1495 1496 1498 1500 1501 1503 1504 1505 1506 1508 1509 1510 1511 1511 1513 1514 1515 1516 1516 1517 1519 1520 1521 1522 1523 1523 1524 1525 1526 1527 1528 1528 1529 1530 1530 1531 1531 1533 1534 1534 1535 1536 1536 1536 1537 1537 1538 1539 1539 1540 1540 1540 1540 1541 1541 1541 1541 1542 1542 1542
1483 1484 1486 1487 1488 1489 1491 1492 1493 1495 1496 1498 1499 1500 1501 1503 1504 1505 1506 1507 1508 1509 1511 1512 1512 1513 1514 1515 1516 1517 1519 1520 1521 1521 1522 1523 1524 1525 1526 1526 1527 1528 1528 1529 1529 1530 1531 1532 1533 1533 1534 1534 1535 1535 1536 1536 1537 1537 1538 1538 1538 1538 1539 1539 1539 1539 1540 1540 1540
1482 1483 1485 1486 1487 1489 1490 1491 1493 1494 1496 1497 1498 1499 1500 1501 1503 1504 1505 1506 1507 1508 1509 1511 1511 1512 1513 1514 1515 1516 1517 1518 1519 1520 1521 1521 1522 1523 1524 1525 1526 1526 1527 1527 1528 1529 1530 1530 1531 1531 1532 1532 1533 1533 1534 1534 1535 1535 1536 1536 1536 1536 1536 1536 1537 1537 1538 1538 1538
1481 1482 1483 1485 1486 1487 1489 1490 1492 1493 1494 1496 1496 1497 1499 1500 1501 1502 1504 1505 1506 1507 1508 1509 1510 1511 1512 1513 1514 1515 1516 1517 1518 1518 1519 1520 1521 1521 1522 1523 1524 1524 1525 1525 1526 1526 1527 1528 1529 1529 1530 1530 1531 1531 1531 1532 1533 1533 1533 1533 1533 1534 1534 1535 1535 1536 1536 1536 1537
1480 1481 1482 1484 1485 1486 1488 1489 1490 1491 1493 1494 1495 1496 1498 1499 1500 1501 1502 1503 1504 1505 1506 1507 1508 1510 1511 1511 1512 1513 1514 1515 1516 1517 1518 1518 1519 1520 1521 1521 1522 1522 1523 1523 1524 1524 1525 1526 1526 1527 1527 1528 1528 1529 1530 1530 1531 1531 1531 1531 1531 1531 1532 1533 1534 1534 1535 1535 1535
1478 1479 1481 1482 1483 1485 1486 1488 1489 1490 1491 1492 1494 1495 1496 1498 1499 1500 1501 1502 1503 1504 1505 1506 1507 1508 1509 1510 1511 1511 1513 1514 1515 1515 1516 1517 1517 1518 1519 1519 1520 1520 1521 1521 1521 1522 1523 1524 1524 1525 1525 1526 1526 1527 1527 1528 1529 1529 1529 1529 1529 1530 1531 1531 1532 1533 1533 1534 1534
1476 1478 1479 1481 1482 1483 1485 1486 1487 1489 1490 1491 1492 1493 1495 1496 1497 1498 1500 1501 1501 1502 1503 1504 1505 1506 1507 1508 1509 1510 1511 1512 1513 1514 1514 1515 1516 1516 1517 1517 1518 1518 1519 1520 1520 1520 1521 1521 1522 1522 1523 1523 1524 1525 1525 1526 1526 1527 1527 1527 1527 1528 1529 1530 1531 1531 1532 1532 1532
1475 1476 1478 1479 1481 1482 1483 1485 1486 1487 1488 1489 1490 1491 1493 1494 1496 1497 1498 1499 1500 1500 1501 1502 1504 1505 1506 1506 1507 1508 1509 1510 1511 1511 1512 1513 1514 1514 1515 1515 1516 1516 1517 1517 1518 1518 1519 1519 1520 1520 1521 1521 1522 1522 1523 1523 1524 1525 1525 1525 1526 1527 1528 1528 1529 1530 1531 1531 1531
1474 1475 1476 1478 1479 1481 1482 1483 1484 1485 1486 1487 1488 1490 1491 1492 1494 1495 1496 1497 1498 1498 1500 1501 1502 1503 1503 1504 1505 1506 1507 1508 1509 1509 1510 1511 1511 1512 1513 1513 1514 1514 1515 1516 1516 1516 1516 1517 1518 1518 1519 1519 1519 1520 1520 1521 1522 1523 1523 1524 1525 1525 1526 1526 1527 1528 1529 1529 1529
1472 1474 1475 1476 1478 1479 1480 1481 1482 1483 1484 1485 1486 1487 1489 1490 1491 1493 1494 1495 1496 1496 1498 1499 1500 1500 1501 1502 1503 1504 1505 1506 1506 1507 1508 1508 1509 1510 1511 1511 1511 1512 1513 1513 1513 1513 1514 1514 1515 1516 1516 1516 1517 1517 1518 1519 1520 1521 1522 1523 1523 1524 1524 1525 1525 1526 1526 1526 1526
1471 1472 1473 1475 1476 1477 1478 1479 1480 1481 1482 1483 1484 1486 1487 1488 1489 1490 1491 1492 1493 1495 1496 1496 1497 1498 1498 1500 1501 1501 1502 1503 1504 1505 1506 1506 1507 1507 1508 1509 1509 1510 1510 1510 1511 1511 1511 1511 1512 1513 1513 1514 1514 1515 1516 1517 1518 1519 1521 1521 1522 1522 1523 1523 1524 1524 1524 1524 1523
1469 1470 1471 1473 1474 1475 1476 1477 1478 1479 1480 1481 1482 1484 1485 1486 1487 1488 1489 1490 1491 1492 1493 1494 1495 1495 1496 1497 1498 1499 1500 1501 1501 1502 1503 1504 1504 1505 1505 1506 1506 1506 1507 1507 1507 1508 1508 1509 1509 1510 1511 1511 1512 1512 1514 1515 1516 1517 1518 1519 1520 1520 1521 1521 1521 1522 1522 1522 1522
1467 1468 1470 1471 1472 1473 1474 1475 1476 1477 1478 1479 1480 1481 1483 1484 1485 1486 1486 1487 1489 1490 1491 1491 1492 1493 1494 1494 1495 1496 1497 1498 1499 1500 1501 1501 1502 1502 1502 1503 1503 1503 1504 1504 1505 1505 1506 1506 1506 1507 1508 1508 1509 1510 1511 1513 1514 1515 1516 1516 1517 1517 1518 1518 1519 1519 1519 1520 1520
1465 1466 1467 1468 1469 1470 1471 1472 1473 1474 1476 1477 1478 1480 1481 1482 1482 1483 1484 1485 1486 1487 1488 1489 1490 1491 1491 1492 1493 1494 1495 1496 1496 1497 1498 1498 1499 1499 1499 1500 1500 1501 1501 1501 1502 1502 1503 1503 1503 1504 1505 1506 1506 1508 1509 1510 1511 1511 1512 1513 1513 1514 1515 1515 1516 1516 1516 1516 1516
1463 1464 1465 1466 1467 1468 1469 1470 1471 1472 1474 1475 1476 1477 1479 1479 1480 1481 1482 1483 1484 1485 1486 1487 1488 1489 1490 1490 1491 1492 1493 1493 1494 1495 1495 1496 1496 1496 1496 1497 1497 1498 1498 1499 1499 1500 1500 1500 1501 1501 1502 1503 1504 1505 1506 1506 1507 1508 1509 1510 1511 1512 1512 1513 1513 1513 1512 1512 1512
1460 1461 1462 1463 1465 1466 1466 1468 1469 1470 1471 1473 1474 1476 1476 1477 1478 1479 1480 1481 1482 1483 1484 1486 1486 1487 1488 1489 1489 1490 1490 1491 1491 1492 1493 1493 1493 1494 1494 1495 1495 1496 1496 1496 1497 1497 1497 1498 1498 1498 1499 1500 1501 1502 1503 1504 1505 1506 1507 1508 1509 1510 1510 1511 1510 1510 1509 1509 1509
1458 1459 1460 1461 1462 1463 1465 1466 1467 1468 1470 1471 1472 1473 1474 1476 1476 1477 1478 1479 1480 1481 1482 1483 1484 1485 1486 1486 1487 1488 1488 1488 1489 1490 1490 1491 1491 1491 1492 1493 1493 1494 1494 1494 1495 1495 1495 1496 1496 1496 1497 1497 1499 1500 1500 1501 1503 1504 1505 1506 1506 1507 1507 1507 1507 1506 1506 1506 1506
1456 1457 1458 1459 1460 1461 1463 1464 1465 1466 1468 1469 1470 1471 1472 1473 1474 1475 1476 1477 1478 1479 1480 1480 1481 1482 1483 1484 1485 1485 1486 1486 1486 1487 1487 1488 1489 1489 1490 1491 1491 1491 1491 1491 1492 1492 1492 1493 1494 1494 1495 1495 1496 1497 1498 1500 1501 1502 1503 1503 1504 1504 1504 1503 1503 1503 1502 1502 1502
1454 1455 1456 1457 1459 1460 1461 1462 1463 1465 1466 1467 1468 1469 1470 1471 1472 1473 1474 1475 1476 1477 1477 1478 1479 1480 1481 1482 1482 1483 1483 1484 1484 1485 1485 1486 1486 1487 1487 1488 1488 1488 1488 1489 1489 1490 1490 1491 1492 1492 1492 1493 1494 1495 1497 1499 1500 1500 1500 1501 1500 1500 1499 1499 1499 1499 1499 1499 1498
1452 1453 1455 1456 1457 1458 1459 1460 1461 1462 1463 1465 1466 1467 1468 1470 1471 1472 1473 1473 1474 1475 1475 1476 1476 1477 1478 1479 1480 1481 1481 1481 1482 1482 1483 1483 1484 1484 1485 1485 1485 1485 1486 1486 1486 1487 1488 1489 1489 1489 1490 1491 1492 1494 1495 1496 1497 1497 1497 1497 1496 1496 1496 1495 1495 1495 1495 1495 1495
1451 1452 1453 1454 1455 1456 1457 1458 1460 1461 1461 1463 1464 1465 1466 1468 1469 1470 1471 1471 1472 1473 1473 1474 1475 1476 1476 1477 1478 1478 1479 1479 1479 1480 1480 1481 1481 1481 1482 1482 1482 1482 1482 1483 1483 1484 1485 1486 1486 1486 1487 1489 1490 1491 1492 1493 1494 1494 1494 1493 1493 1493 1493 1492 1492 1492 1492 1492 1492
1449 1451 1451 1452 1453 1455 1456 1456 1458 1459 1460 1461 1462 1464 1465 1466 1467 1468 1469 1470 1470 1471 1472 1472 1473 1474 1474 1475 1476 1476 1476 1476 1477 1477 1478 1478 1478 1479 1479 1479 1479 1480 1480 1480 1481 1482 1483 1483 1484 1484 1485 1486 1488 1490 1491 1491 1492 1492 1491 1491 1491 1491 1491 1490 1490 1490 1490 1489 1489
1447 1449 1450 1451 1452 1453 1454 1455 1456 1457 1459 1460 1461 1462 1463 1464 1466 1467 1467 1468 1469 1469 1470 1471 1471 1472 1472 1473 1473 1473 1474 1474 1474 1475 1475 1476 1476 1476 1477 1477 1477 1477 1478 1478 1479 1480 1481 1481 1482 1482 1483 1485 1487 1489 1490 1490 1490 1489 1489 1488 1488 1488 1488 1488 1488 1487 1487 1487 1487
1445 1446 1447 1449 1450 1451 1452 1453 1454 1455 1456 1458 1459 1460 1461 1462 1464 1465 1466 1466 1467 1468 1468 1469 1469 1470 1470 1470 1471 1471 1471 1472 1473 1473 1474 1474 1475 1475 1476 1476 1476 1476 1477 1477 1478 1479 1480 1480 1480 1481 1482 1484 1486 1487 1487 1487 1487 1486 1486 1486 1486 1486 1486 1485 1485 1485 1485 1485 1485
1443 1444 1446 1447 1448 1449 1450 1451 1452 1453 1455 1456 1457 1458 1460 1461 1462 1463 1464 1464 1465 1465 1466 1466 1467 1467 1468 1468 1469 1470 1471 1471 1471 1472 1473 1473 1474 1474 1475 1476 1476 1476 1476 1476 1477 1478 1479 1479 1479 1480 1481 1483 1484 1485 1485 1485 1485 1484 1484 1483 1483 1483 1483 1483 1483 1483 1483 1483 1483
1441 1442 1443 1444 1446 1446 1448 1449 1450 1452 1453 1454 1456 1457 1458 1459 1460 1461 1461 1462 1463 1463 1464 1464 1465 1466 1466 1467 1468 1469 1470 1470 1470 1470 1471 1472 1472 1473 1474 1474 1475 1475 1475 1476 1476 1477 1477 1478 1478 1479 1480 1480 1481 1482 1482 1482 1482 1481 1481 1481 1481 1481 1481 1481 1481 1480 1480 1480 1480
1438 1439 1441 1442 1443 1445 1446 1447 1449 1450 1452 1453 1455 1456 1457 1457 1458 1459 1459 1460 1461 1462 1463 1464 1464 1465 1466 1466 1466 1467 1467 1467 1468 1469 1470 1471 1471 1472 1473 1474 1474 1475 1475 1475 1475 1475 1475 1475 1476 1476 1476 1477 1478 1478 1478 1479 1479 1479 1479 1479 1479 1479 1479 1478 1478 1478 1478 1478 1478
1435 1437 1438 1440 1441 1443 1445 1446 1448 1449 1451 1452 1453 1454 1455 1456 1456 1457 1458 1459 1460 1461 1462 1462 1463 1463 1463 1463 1464 1465 1466 1466 1467 1468 1469 1470 1471 1472 1473 1474 1474 1474 1473 1473 1473 1472 1472 1472 1472 1472 1473 1473 1474 1475 1475 1475 1476 1476 1476 1476 1476 1476 1476 1476 1476 1476 1476 1476 1476
1432 1434 1436 1438 1440 1442 1444 1445 1447 1448 1450 1451 1452 1453 1453 1454 1455 1456 1456 1457 1458 1459 1459 1460 1460 1461 1461 1462 1463 1464 1466 1466 1468 1469 1470 1471 1471 1472 1472 1472 1472 1471 1470 1470 1469 1469 1469 1469 1469 1469 1470 1470 1471 1471 1472 1472 1473 1473 1474 1474 1474 1474 1474 1474 1474 1474 1474 1474 1474
1431 1433 1435 1437 1439 1441 1443 1445 1446 1447 1449 1450 1451 1451 1452 1452 1453 1453 1453 1454 1455 1456 1457 1458 1459 1460 1461 1462 1463 1464 1465 1466 1467 1468 1469 1469 1469 1468 1468 1468 1467 1466 1466 1466 1466 1466 1466 1466 1466 1467 1467 1467 1468 1469 1470 1470 1471 1471 1472 1472 1472 1472 1471 1471 1471 1471 1471 1472 1472
1429 1432 1434 1436 1438 1440 1442 1443 1445 1446 1447 1448 1449 1449 1450 1450 1450 1450 1450 1451 1452 1454 1455 1457 1458 1459 1461 1461 1463 1464 1465 1466 1466 1466 1466 1465 1465 1464 1464 1463 1463 1462 1462 1462 1462 1463 1463 1464 1464 1464 1465 1465 1466 1467 1468 1469 1469 1470 1470 1470 1469 1469 1469 1469 1469 1469 1470 1470 1471
1429 1431 1433 1435 1437 1439 1441 1442 1444 1446 1446 1446 1445 1446 1447 1447 1448 1448 1449 1450 1451 1453 1454 1456 1457 1459 1460 1461 1462 1463 1463 1463 1464 1464 1463 1463 1462 1462 1461 1461 1460 1460 1459 1459 1460 1461 1461 1461 1461 1462 1463 1464 1465 1466 1466 1467 1467 1468 1468 1467 1466 1466 1466 1466 1467 1467 1468 1468 1469
1428 1430 1432 1434 1436 1438 1440 1441 1443 1444 1444 1443 1442 1442 1444 1445 1446 1447 1448 1449 1451 1452 1454 1456 1457 1459 1460 1461 1461 1461 1461 1461 1461 1462 1462 1461 1461 1460 1459 1459 1459 1458 1458 1458 1459 1459 1459 1459 1460 1461 1461 1462 1463 1464 1465 1465 1465 1465 1465 1464 1464 1464 1465 1465 1466 1466 1466 1467 1467
1427 1429 1431 1433 1435 1437 1438 1439 1441 1441 1440 1439 1439 1440 1442 1444 1446 1447 1448 1449 1450 1452 1453 1455 1457 1458 1459 1459 1459 1459 1459 1459 1460 1460 1459 1459 1459 1458 1458 1457 1457 1457 1457 1457 1458 1458 1458 1458 1459 1459 1460 1461 1461 1462 1463 1463 1463 1462 1462 1462 1462 1463 1463 1464 1464 1465 1465 1465 1466
1425 1427 1429 1430 1432 1434 1435 1436 1437 1437 1436 1436 1437 1439 1441 1443 1445 1446 1447 1449 1450 1451 1453 1455 1456 1457 1457 1457 1457 1458 1458 1458 1457 1457 1457 1457 1457 1457 1456 1456 1456 1455 1456 1456 1457 1457 1457 1457 1457 1458 1459 1459 1460 1461 1461 1461 1461 1461 1461 1461 1461 1461 1462 1462 1463 1463 1463 1463 1464
1423 1425 1426 1427 1429 1430 1431 1433 1434 1434 1434 1435 1436 1438 1440 1442 1444 1445 1447 1448 1449 1451 1452 1454 1454 1455 1455 1456 1456 1456 1456 1455 1455 1455 1455 1456 1456 1455 1455 1455 1454 1454 1454 1455 1455 1456 1456 1456 1456 1457 1457 1458 1459 1459 1459 1459 1459 1459 1459 1460 1460 1460 1461 1461 1461 1461 1462 1462 1462
1421 1423 1424 1425 1426 1427 1429 1430 1430 1431 1431 1433 1435 1437 1440 1441 1443 1444 1446 1447 1448 1450 1451 1452 1452 1452 1453 1454 1454 1454 1453 1453 1453 1453 1454 1454 1454 1454 1454 1453 1453 1453 1453 1454 1454 1454 1454 1455 1456 1456 1456 1457 1457 1457 1457 1457 1457 1458 1458 1458 1459 1459 1459 1460 1460 1460 1460 1460 1460
Wind_Speed
34 33 33 34 34 35 37 39 40 41 42 44 45 46 46 46 45 45 44 43 43 42 41 41 40 40 39 38 37 37 36 35 35 34 33 32 32 31 31 31 32 33 33 34 35 35 35 35 34 33 33 32 31 31 31 32 31 31 32 32 31 31 30 29 28 27 26 26 25
33 32 32 33 34 35 36 38 39 41 42 43 45 45 45 45 45 44 43 42 41 41 40 40 40 40 39 38 37 36 36 35 35 34 33 33 32 32 32 32 32 33 34 35 35 36 36 36 35 35 34 33 32 32 32 32 32 32 32 32 32 32 31 31 29 28 27 27 26
33 32 32 33 34 35 36 38 39 40 41 43 44 44 45 44 44 43 42 41 40 40 40 40 40 40 39 38 37 36 35 35 35 34 34 33 33 32 32 32 33 34 35 36 36 36 36 36 36 36 35 34 33 33 33 33 33 33 33 33 33 33 33 32 31 30 29 28 28
33 33 33 33 34 36 37 38 39 40 41 42 43 44 44 44 43 41 40 39 39 39 40 40 40 40 39 38 37 36 35 35 35 35 34 34 33 33 32 33 33 34 35 36 37 37 37 37 37 37 36 35 34 34 34 33 33 33 34 34 34 34 34 33 32 31 31 30 30
33 33 33 33 34 36 37 39 39 40 41 42 43 44 44 43 42 41 40 39 39 39 39 39 40 39 39 38 37 36 36 36 36 35 35 34 34 33 33 33 33 34 36 37 37 38 38 38 38 38 37 36 36 35 35 35 34 34 34 35 35 35 34 34 34 33 32 32 31
33 32 32 32 33 34 36 37 39 40 41 42 43 44 44 43 42 41 40 39 39 39 39 39 39 39 39 38 37 37 36 36 36 36 36 35 34 34 33 33 33 34 35 36 37 38 38 38 39 39 38 38 37 37 36 36 36 36 36 36 36 36 36 36 35 35 34 33 33
32 31 31 31 32 33 34 36 38 39 40 42 43 44 44 44 43 41 40 39 39 39 39 39 39 39 39 38 38 37 37 37 37 37 37 36 35 35 34 34 34 34 35 36 37 38 38 39 40 40 39 39 39 39 38 38 38 37 37 38 37 37 37 37 36 36 35 35 34
32 31 31 31 31 32 33 35 36 38 40 42 43 44 44 43 42 41 40 39 39 39 39 39 39 39 39 39 38 38 38 38 38 38 38 37 37 36 35 35 35 35 35 36 37 38 39 39 40 41 41 41 40 40 40 39 39 39 39 39 39 39 39 38 37 37 36 36 35
32 32 31 31 31 31 32 34 35 37 40 41 43 44 44 43 42 41 40 39 39 39 39 39 39 39 39 39 39 39 39 39 39 39 39 38 38 37 37 36 36 36 36 37 38 38 39 40 41 42 42 42 41 41 40 40 40 40 40 41 41 41 40 39 38 37 36 36 36
33 33 32 32 32 32 32 33 34 36 38 40 42 43 43 43 42 42 41 40 39 39 39 39 40 40 40 40 40 40 40 40 40 40 40 39 39 38 38 37 37 37 37 38 38 39 40 41 41 42 42 42 42 42 41 41 41 41 42 42 42 42 41 39 38 37 36 36 37
33 33 33 33 33 33 33 33 34 35 37 38 40 41 42 42 42 42 41 40 40 40 39 39 40 40 41 41 41 41 41 41 41 41 41 40 40 39 39 39 38 38 38 39 39 40 40 41 42 42 43 43 43 42 42 42 42 42 43 43 43 42 41 39 38 37 36 37 37
34 34 34 34 34 34 34 34 35 36 37 38 39 40 41 42 42 42 41 41 40 40 40 39 39 40 41 42 42 42 43 43 42 42 42 41 41 40 40 40 39 39 39 39 40 40 41 41 42 42 43 43 43 43 43 43 43 43 44 44 43 42 40 39 38 37 37 37 37
35 35 35 35 35 35 35 35 36 36 37 38 39 40 40 41 41 41 41 41 41 40 40 39 39 40 41 42 42 43 43 43 43 43 43 42 42 41 41 41 40 40 40 40 40 41 41 41 42 42 43 44 44 44 44 44 44 44 44 43 42 41 40 39 37 37 37 38 38
36 36 36 36 36 36 36 36 37 37 38 39 39 40 40 40 40 41 41 41 41 40 40 39 39 40 40 40 41 42 42 43 43 43 43 43 42 42 42 41 41 41 40 40 41 41 41 41 42 42 43 44 45 45 45 45 45 44 44 42 41 40 39 38 37 38 39 39 40
37 37 36 36 36 36 37 37 37 38 38 39 39 40 40 40 40 40 41 41 41 40 40 40 40 39 39 39 39 40 40 40 41 41 41 41 41 41 41 41 41 40 40 41 41 41 41 41 42 42 43 44 45 45 45 45 45 44 42 40 39 38 37 37 38 39 40 41 41
37 37 37 37 37 37 37 38 38 38 39 39 39 40 40 40 40 40 41 41 40 40 40 40 40 40 39 38 38 38 38 38 38 38 39 39 39 39 39 39 39 39 39 39 40 40 40 40 41 41 42 43 43 44 44 43 43 41 40 38 37 37 38 38 39 40 40 41 41
36 36 36 37 37 37 37 38 38 38 38 39 39 39 40 40 40 40 41 40 40 40 40 40 40 39 39 38 38 37 37 37 37 37 38 38 38 38 38 38 38 38 38 37 37 37 38 38 39 39 39 40 40 40 40 39 39 38 38 38 38 39 40 40 40 40 40 40 40
34 35 36 36 37 37 37 37 38 37 38 38 38 39 39 39 40 40 40 40 40 40 40 39 39 39 39 39 38 37 37 37 37 37 37 37 37 38 38 38 37 37 36 36 35 35 35 36 36 37 37 37 37 36 35 35 35 36 37 37 38 39 39 40 40 40 40 40 40
33 34 35 36 37 37 37 37 37 37 37 37 37 38 38 39 39 40 40 39 39 39 39 39 39 38 38 38 38 38 37 37 38 38 38 37 38 38 38 37 36 36 35 35 34 34 34 34 34 35 35 35 34 33 33 33 34 35 35 35 35 35 36 36 37 38 39 39 39
33 33 34 35 35 36 36 36 36 36 37 37 37 37 38 38 38 38 38 38 38 37 37 37 38 38 38 38 38 38 38 37 38 38 38 38 38 38 37 37 36 35 34 34 33 33 33 33 34 34 34 34 33 33 33 34 34 34 34 33 32 31 31 32 33 34 35 36 36
33 33 33 34 34 35 35 36 36 36 37 37 37 37 37 38 37 37 37 36 36 36 36 36 36 36 36 37 37 37 37 37 37 37 37 37 37 37 36 35 35 34 34 33 33 33 33 34 34 35 35 35 34 34 34 34 33 32 31 30 29 28 29 30 31 31 32 32 32
33 33 33 33 34 34 35 35 35 36 37 37 37 37 37 37 37 36 36 35 35 36 36 35 35 35 35 35 35 35 36 36 36 36 36 36 35 35 34 33 33 33 33 33 33 33 34 34 35 35 35 35 35 35 34 32 31 30 29 28 28 30 31 32 31 30 30 30 30
33 33 33 33 33 34 34 35 35 36 36 37 37 36 36 36 36 35 35 35 35 35 35 35 34 34 34 34 34 34 34 34 34 33 33 33 32 32 32 32 32 32 33 33 33 34 34 34 35 35 35 35 35 33 31 29 28 27 27 28 31 33 35 35 33 32 30 30 30
33 33 33 33 33 34 34 35 35 36 36 36 36 36 36 36 35 35 35 35 35 35 35 35 34 34 33 33 32 32 32 32 32 32 31 31 31 31 31 31 32 32 33 33 34 34 34 34 34 34 34 33 33 30 28 27 27 28 29 30 32 34 35 35 34 33 32 31 31
33 34 34 34 34 34 35 35 36 36 36 36 36 36 36 36 35 35 35 35 35 35 35 34 34 33 33 32 32 32 32 32 32 31 31 31 31 31 31 32 32 33 33 33 33 33 32 32 33 32 32 30 29 29 28 29 31 32 32 33 33 33 34 34 34 34 34 33 32
34 35 35 35 35 35 35 35 35 35 35 35 35 35 35 35 35 35 35 34 34 34 34 33 33 33 33 32 32 32 32 32 32 32 32 32 31 31 32 32 33 33 33 33 32 32 32 31 32 32 33 35 35 35 35 34 34 33 33 33 32 33 33 34 35 35 34 33 32
35 36 36 36 36 36 36 35 35 34 34 34 34 34 34 34 33 33 34 33 33 33 33 33 33 33 33 33 33 33 33 33 33 33 33 32 32 33 33 33 34 34 34 34 33 33 32 31 31 32 33 35 36 36 35 34 33 32 31 30 30 31 33 34 34 34 34 33 31
36 36 36 36 36 36 36 35 35 35 34 34 34 33 33 32 32 32 32 32 32 32 32 32 33 33 33 33 33 33 33 33 33 33 33 33 33 33 33 33 34 35 35 35 34 34 33 33 33 34 34 34 33 32 31 31 30 29 28 28 28 29 30 31 32 32 32 31 30
36 37 37 37 37 37 36 36 36 35 35 34 33 33 32 32 31 31 31 31 32 32 33 33 33 33 34 34 34 34 34 33 33 33 33 33 33 34 35 35 35 35 35 34 34 34 34 34 37 40 41 38 34 31 29 29 29 28 27 27 27 28 28 28 28 28 28 28 27
37 37 38 38 37 37 37 36 36 35 35 34 33 33 32 31 31 31 31 31 32 33 33 33 34 34 34 34 34 33 33 33 33 33 33 33 34 35 36 35 35 35 35 35 35 35 36 39 40 41 41 38 33 30 28 28 27 26 26 26 27 27 28 28 28 28 27 27 27
39 39 39 39 38 37 37 36 36 35 35 34 33 32 31 31 30 30 31 31 32 33 33 33 33 34 34 34 33 33 33 33 33 32 32 32 32 33 33 34 33 34 34 36 37 36 36 37 39 41 40 35 30 28 27 26 25 25 25 26 28 28 29 29 29 28 28 27 27
41 41 40 40 39 38 37 35 35 34 33 32 31 31 30 30 31 31 32 32 32 33 33 33 33 33 34 34 33 33 32 31 31 30 29 30 30 30 30 31 31 33 36 38 39 38 37 37 38 38 36 31 27 25 25 25 25 25 26 27 29 29 29 29 29 28 28 28 28
42 42 41 40 39 37 36 35 34 33 32 31 30 30 31 32 32 33 33 33 33 33 34 34 34 34 33 32 31 30 28 27 25 23 22 22 22 24 26 28 30 33 35 36 38 39 39 39 37 35 31 26 24 23 24 24 25 26 28 29 30 31 30 29 29 28 28 28 28
43 41 40 39 37 36 35 33 32 32 31 31 31 31 32 33 34 35 35 35 34 33 33 33 33 32 31 29 27 25 22 19 16 14 15 18 22 25 28 31 34 35 34 34 34 36 38 41 39 35 28 23 21 22 23 25 26 28 30 31 32 32 31 30 29 29 28 28 27
43 41 39 38 36 34 31 28 27 27 29 32 33 33 34 34 35 35 35 34 33 32 31 31 30 29 28 26 23 19 16 13 14 18 21 25 29 33 36 38 39 39 38 35 32 32 34 37 37 33 26 21 20 22 24 26 28 30 32 33 34 33 32 31 30 29 28 27 27
42 41 39 37 34 30 26 21 20 24 30 34 37 37 37 36 34 32 31 30 29 28 28 27 26 25 22 20 16 14 14 16 20 23 25 29 32 35 36 36 35 35 34 32 30 30 32 35 34 29 24 20 21 23 26 28 30 32 33 34 34 33 32 30 29 28 27 27 26
41 40 39 36 33 28 24 21 22 28 35 39 41 41 39 35 31 29 27 26 25 24 23 22 20 17 14 12 12 14 18 21 24 27 29 31 32 33 32 31 29 27 26 26 27 28 30 31 29 25 22 21 23 25 28 30 32 33 34 34 33 32 31 30 28 28 27 26 26
38 38 37 35 33 29 27 26 29 34 40 43 42 40 36 32 27 25 24 22 21 19 18 16 12 9 9 11 16 20 23 26 29 31 32 32 32 32 31 29 27 25 23 23 24 26 27 27 26 24 23 23 25 27 29 31 32 33 33 32 31 30 29 29 28 27 27 27 27
37 37 37 36 35 33 31 31 34 39 42 42 39 36 31 26 23 21 20 18 17 16 13 10 8 9 12 16 21 26 29 31 32 33 33 32 32 32 31 29 27 25 23 22 23 24 25 26 26 25 25 26 27 28 29 30 31 31 30 29 29 29 28 28 27 27 27 27 27
38 37 37 37 37 37 35 35 38 40 41 38 35 31 27 22 19 18 17 16 15 14 12 8 8 11 14 18 24 28 32 33 32 32 31 31 32 31 31 30 29 26 24 22 23 23 24 25 25 26 26 26 27 27 28 28 28 28 27 27 27 27 27 26 26 27 27 27 27
38 37 38 38 39 39 39 40 40 40 37 33 30 28 25 21 17 16 17 16 15 13 10 9 11 13 17 21 25 28 30 31 31 31 31 31 31 30 30 30 29 27 25 24 23 23 24 24 25 25 25 25 26 26 26 26 26 25 25 25 25 25 25 25 26 26 26 27 27
Wind_Direction
198 199 200 202 203 204 204 205 205 204 204 203 202 202 203 204 205 206 207 208 210 211 213 214 214 214 214 214 214 214 215 216 218 219 221 224 225 227 228 228 228 228 228 228 228 228 228 227 227 227 228 228 229 230 231 231 231 232 232 233 234 235 236 238 239 240 240 241 243
202 203 205 206 208 208 208 208 208 207 207 206 205 204 205 206 207 208 210 211 213 214 215 216 216 216 216 216 216 216 217 218 219 221 223 225 227 228 229 229 229 229 229 229 229 229 229 228 228 228 229 229 230 230 231 232 233 233 234 235 236 237 238 239 241 242 242 242 243
206 207 209 210 211 212 211 211 210 210 209 208 207 207 207 209 210 212 213 215 216 218 218 219 219 218 218 218 218 218 218 219 221 223 225 227 228 230 230 230 230 230 230 231 231 231 230 230 230 230 230 231 231 232 232 233 234 235 235 236 237 239 240 241 242 242 243 242 243
208 210 211 213 214 214 214 214 212 211 211 210 209 209 210 212 213 215 217 219 220 221 221 221 221 220 220 220 220 220 220 221 223 225 227 229 230 231 232 232 232 232 232 232 232 232 232 232 232 232 232 232 233 233 234 235 236 236 237 238 239 240 241 242 243 243 243 243 243
210 212 214 215 216 216 216 216 215 213 212 211 211 211 213 214 216 219 221 223 224 224 224 224 223 223 222 222 222 222 222 223 225 226 228 231 232 233 234 235 234 234 234 234 234 234 234 234 234 234 234 234 235 236 237 237 238 238 239 240 241 242 243 243 244 244 243 243 243
213 214 215 216 217 217 218 218 218 216 215 214 213 214 215 216 219 221 224 226 227 228 227 227 226 226 225 225 225 225 225 225 227 228 230 232 234 235 236 237 237 237 236 236 236 235 235 235 235 235 236 236 236 237 238 239 239 240 240 241 242 243 244 244 244 244 244 243 243
215 216 217 218 218 219 220 220 220 219 218 217 216 217 217 219 221 224 226 229 230 231 230 230 229 229 228 228 228 227 227 228 229 230 232 234 235 237 238 239 239 239 238 238 238 237 237 236 236 237 237 237 238 238 239 239 240 240 241 242 244 245 245 245 245 245 244 244 244
219 219 220 220 220 220 221 222 223 222 221 220 220 220 220 222 224 226 229 231 233 234 234 233 232 232 232 232 231 231 230 230 231 232 234 235 237 238 240 241 241 240 240 240 239 238 238 237 238 238 238 238 239 239 240 240 241 242 242 243 245 246 246 246 246 246 246 246 246
221 222 222 223 223 223 223 224 225 225 225 224 224 224 224 226 228 230 232 234 236 237 237 236 236 235 235 235 234 234 233 233 234 235 236 237 239 240 242 242 243 242 242 242 241 240 239 238 238 239 239 240 240 241 241 242 242 243 243 244 245 246 246 246 247 247 247 248 249
222 223 224 225 225 226 226 226 227 228 228 228 228 228 229 230 231 234 236 238 239 240 240 240 239 238 237 237 237 237 236 236 237 238 239 240 241 242 243 244 245 245 244 243 243 242 241 240 240 240 241 241 242 242 243 243 243 244 245 245 246 246 246 247 247 248 249 250 251
224 224 225 226 227 228 228 229 230 231 231 232 232 232 233 234 235 237 239 241 242 243 243 243 242 241 240 239 239 239 239 239 240 241 242 243 244 245 246 247 247 247 247 246 246 245 244 242 242 242 242 243 243 244 244 244 244 245 246 246 247 247 247 247 248 249 251 252 253
226 226 227 227 228 229 230 230 231 232 233 234 235 236 236 237 238 239 241 242 244 245 246 246 245 244 243 242 242 242 242 243 243 244 245 246 246 247 248 249 249 250 249 249 249 248 247 246 245 244 244 245 245 245 245 246 246 246 246 247 248 248 248 248 249 250 252 253 254
228 228 229 229 229 230 231 231 232 233 234 236 237 238 239 240 240 241 242 243 245 246 247 247 247 246 246 245 245 245 245 246 246 247 248 248 249 249 250 250 251 251 251 251 251 251 251 250 248 248 247 247 247 247 247 247 247 247 248 248 248 248 248 249 249 251 252 253 255
228 229 230 230 231 231 231 232 233 234 235 237 238 239 240 241 242 242 243 244 245 246 247 248 248 248 248 248 248 248 248 249 249 250 251 251 252 252 252 253 253 254 254 254 254 254 253 253 252 251 250 250 250 250 250 250 249 249 249 249 249 250 250 251 252 253 254 255 256
228 229 231 231 231 231 232 233 234 235 236 238 239 240 241 241 242 243 244 245 245 246 247 247 248 249 249 249 249 250 250 251 251 252 253 253 254 255 255 255 255 256 256 255 255 256 256 256 255 254 253 253 252 252 252 252 252 251 251 250 250 251 253 254 256 257 258 260 260
227 229 230 231 231 232 232 233 234 235 236 238 240 241 241 241 242 243 244 245 245 246 246 247 248 249 250 250 250 251 251 252 252 253 254 255 256 256 257 257 257 257 257 257 257 257 258 258 258 257 257 256 256 256 256 255 255 254 253 252 252 253 255 257 259 261 263 264 265
228 228 229 230 231 232 233 234 235 235 236 237 239 240 241 241 242 243 244 245 245 246 246 247 248 249 250 251 251 251 252 252 253 254 255 255 256 257 257 258 258 259 259 259 259 259 259 259 259 259 259 259 259 259 259 259 258 257 255 254 254 254 255 256 259 262 265 266 266
229 229 230 230 231 232 233 234 234 235 235 237 238 239 240 241 242 243 244 245 246 246 247 248 248 249 250 252 252 252 252 253 254 255 255 256 256 257 258 259 259 260 261 262 262 261 261 261 261 261 261 260 261 261 261 261 260 259 258 257 256 255 255 256 259 261 263 264 263
231 230 230 231 232 233 233 234 234 234 235 236 237 239 240 241 242 244 245 246 247 247 248 249 249 250 251 253 254 254 254 255 255 256 256 256 257 258 259 260 261 263 264 264 264 264 263 262 262 261 261 261 261 261 261 261 261 261 260 260 259 258 257 258 259 260 260 260 260
232 232 231 231 232 233 234 234 235 235 236 237 238 239 240 242 243 245 246 247 248 248 249 250 251 251 253 254 255 255 256 256 256 257 257 258 259 260 261 263 264 265 266 266 266 265 264 262 261 261 261 260 260 260 260 260 260 261 261 261 261 260 260 261 262 262 261 261 261
233 233 232 231 232 233 234 234 236 236 237 238 238 239 241 243 245 246 247 248 249 250 251 251 252 252 253 254 255 255 256 256 257 258 259 260 261 263 265 266 267 267 267 267 266 265 262 260 260 260 260 260 259 259 258 259 260 261 261 262 262 263 265 266 267 266 266 266 266
233 233 232 232 232 232 233 235 236 237 238 238 239 240 242 243 245 247 248 249 249 250 252 253 253 253 253 254 254 255 256 257 259 260 261 263 264 266 267 267 267 267 267 266 265 262 260 259 259 259 259 259 258 258 258 259 260 263 264 266 266 266 268 270 270 269 269 268 268
233 233 233 232 232 233 234 235 236 237 238 239 240 241 242 243 245 246 247 248 249 250 252 254 255 255 254 254 255 256 258 259 261 263 264 265 266 267 267 266 265 265 264 263 262 260 259 258 258 257 257 257 258 258 259 261 264 268 270 269 267 266 268 269 271 271 270 269 268
233 233 234 234 234 234 235 235 236 237 238 239 240 241 241 242 243 244 246 247 248 250 252 254 255 256 256 256 257 258 260 262 263 265 265 266 266 266 265 264 263 262 261 260 259 259 258 258 257 257 256 256 258 259 263 268 274 275 273 268 265 263 264 267 269 270 269 268 267
234 235 235 236 236 237 237 237 237 238 239 240 241 242 243 243 243 244 245 247 249 251 253 255 256 258 258 259 260 261 262 263 264 265 266 266 265 264 263 263 262 261 259 258 257 257 257 257 256 256 256 258 263 269 276 280 280 277 272 266 262 261 262 264 267 268 268 267 265
236 236 236 237 238 239 239 240 240 241 241 242 243 244 245 246 246 246 248 250 252 254 256 258 259 260 261 262 263 263 264 264 265 265 265 264 264 262 261 261 260 259 257 256 255 255 256 257 257 258 261 266 272 277 280 280 278 275 271 266 263 262 263 265 267 268 268 267 265
238 238 238 239 240 241 242 242 243 244 244 245 246 247 248 249 250 250 251 253 256 258 259 261 261 262 263 263 263 263 264 264 265 265 264 263 261 260 258 258 257 256 255 254 254 255 257 258 261 265 270 274 276 276 275 275 275 274 272 269 268 268 269 269 269 269 268 267 265
241 240 240 241 241 242 243 244 245 246 247 247 248 249 251 252 253 253 254 256 258 260 261 261 262 262 262 262 263 263 263 264 263 263 262 260 258 256 255 255 255 254 253 253 255 258 260 263 267 272 276 278 277 275 273 273 272 272 272 272 273 274 275 274 273 271 269 266 264
243 243 242 242 243 244 244 245 246 247 248 249 250 251 253 254 255 256 257 258 259 259 260 261 261 261 261 261 261 261 261 260 260 258 257 256 254 253 253 253 252 251 251 254 258 262 267 271 274 275 275 276 275 272 269 268 268 268 270 273 277 280 280 279 276 272 268 265 262
245 244 243 243 244 244 245 246 247 248 249 251 251 252 254 255 257 259 259 259 259 259 259 260 259 258 258 258 257 256 255 253 253 252 251 250 249 251 252 251 250 250 253 258 263 267 270 273 274 274 274 275 273 269 265 265 266 267 270 276 281 284 283 281 277 273 268 265 263
245 244 243 243 244 244 245 247 248 249 250 251 253 254 256 258 260 261 261 260 258 257 256 256 254 253 253 252 250 249 248 247 247 247 246 246 249 251 252 252 251 253 259 265 269 271 270 268 268 269 272 274 272 268 265 266 267 269 274 280 285 286 285 282 278 273 269 265 263
243 243 243 243 244 245 246 247 249 250 252 253 255 257 258 259 260 260 259 257 253 251 249 248 247 246 246 246 246 245 245 245 245 246 249 254 257 258 258 258 260 264 268 272 274 274 272 269 266 267 270 274 272 268 267 268 270 272 275 281 285 286 284 281 277 273 268 265 263
241 241 242 243 244 245 247 248 250 252 254 256 258 259 259 258 256 253 251 248 246 244 243 242 242 242 243 243 244 244 244 245 247 252 260 268 272 274 275 275 276 277 278 277 275 274 273 272 271 271 272 273 270 268 268 270 271 272 276 280 283 283 280 276 273 269 266 264 262
239 240 241 242 244 246 248 250 252 253 254 255 256 257 256 253 250 246 243 241 241 240 241 241 241 242 242 242 242 241 242 246 256 273 287 293 294 293 291 289 287 285 282 278 272 269 269 270 271 272 272 271 268 266 267 268 269 271 275 279 280 278 274 271 267 264 262 261 260
240 241 242 243 245 247 250 253 257 260 258 254 251 250 250 248 245 243 241 240 239 239 239 239 239 239 239 238 238 240 249 266 286 298 302 301 298 295 292 290 288 286 282 276 267 261 260 262 266 268 269 267 263 262 262 263 266 270 274 275 274 271 269 266 264 261 259 258 259
242 243 243 245 246 247 247 250 259 265 263 256 249 245 243 243 242 241 240 238 237 236 236 235 235 234 234 236 243 258 279 294 301 302 301 298 294 292 290 290 289 286 282 275 267 260 257 258 261 264 264 261 258 257 258 260 264 268 270 269 268 268 267 265 262 260 259 259 261
242 243 244 245 244 241 238 237 244 252 255 253 246 241 239 239 240 240 238 236 232 230 229 229 228 230 236 251 273 289 299 301 299 296 292 290 290 291 292 293 292 289 284 278 272 267 263 262 262 262 260 256 254 253 255 258 262 265 266 266 267 267 266 264 262 260 259 261 263
240 242 243 243 240 235 231 231 236 242 246 246 242 238 236 237 239 238 236 232 225 220 217 218 223 240 268 289 296 298 299 297 293 289 287 288 290 292 293 292 291 288 284 281 277 273 269 266 263 261 258 255 253 253 255 259 262 264 265 266 266 266 264 262 261 260 261 263 266
237 239 240 239 235 231 229 232 237 240 241 239 236 234 234 235 236 234 229 220 212 209 211 217 245 280 297 301 297 293 290 287 286 285 287 289 291 291 290 287 285 283 281 279 275 272 269 266 263 260 257 255 253 254 256 259 262 263 265 265 264 263 262 261 261 262 264 266 268
238 238 238 236 232 229 229 233 236 237 236 233 231 232 234 233 228 222 214 205 211 224 238 256 283 298 301 297 290 285 281 280 282 285 287 289 289 289 287 283 280 278 276 273 269 267 265 263 260 258 256 255 254 255 257 259 261 262 263 262 262 262 261 262 263 265 267 269 271
238 237 237 235 233 231 230 232 233 233 231 228 228 230 231 228 217 205 198 203 228 248 268 290 303 303 297 289 281 277 276 278 282 284 286 286 286 285 283 280 277 274 271 267 263 260 259 258 257 256 256 255 256 256 258 259 260 260 260 261 261 262 263 265 266 268 270 271 271